This demonstration page uses our WeatherBlox Daily Observations layout. Learn more.

Left ArrowRight Arrow

39.01783, -85.05884

Hourly Observations for October 1, 2022

Temp ( °F °C ) Dew Point ( °F °C ) Humidity (%) Winds ( mph kmh ) Pressure ( in mb ) Visibility ( mi km ) Precip ( " mm )
12:52 am 00:52 Cloudy 57 13.9 38 3.3 49 49 NE 12 19 30.04 1017 10 16 0.00 0.00
1:52 am 01:52 Cloudy 54 12.2 40 4.4 59 59 NNE 12 19 30.02 1017 10 16 0.00 0.00
2:52 am 02:52 Cloudy 54 12.2 41 5 61 61 NE 10 17 30.01 1016 10 16 0.00 0.00
3:52 am 03:52 Cloudy 53 11.7 42 5.6 66 66 NNE 10 17 30.00 1016 10 16 0.00 0.00
4:52 am 04:52 Cloudy 51 10.6 43 6.1 74 74 N 8 13 29.98 1015 10 16 0.00 0.00
5:52 am 05:52 Cloudy 50 10 43 6.1 77 77 N 8 13 30.00 1016 10 16 0.00 0.00
6:52 am 06:52 Cloudy 50 10 43 6.1 77 77 N 9 15 30.01 1016 10 16 0.00 0.00
7:52 am 07:52 Mostly Cloudy 50 10 43 6.1 77 77 N 14 22 30.01 1016 10 16 0.00 0.00
8:52 am 08:52 Mostly Cloudy 51 10.6 44 6.7 77 77 N 13 20 30.02 1017 10 16 0.00 0.00
9:52 am 09:52 Mostly Cloudy 53 11.7 45 7.2 74 74 N 12 19 30.03 1017 10 16 0.00 0.00
10:52 am 10:52 Partly Cloudy 59 15 45 7.2 60 60 N 16 26 30.03 1017 10 16 0.00 0.00
11:52 am 11:52 Partly Cloudy 65 18.3 40 4.4 40 40 NNE 16 26 30.03 1017 10 16 0.00 0.00
12:52 pm 12:52 Partly Cloudy 68 20 38 3.3 33 33 NE 17 28 30.03 1017 10 16 0.00 0.00
1:52 pm 13:52 Partly Cloudy 70 21.1 38 3.3 31 31 N 18 30 30.02 1017 10 16 0.00 0.00
2:52 pm 14:52 Partly Cloudy 71 21.7 39 3.9 31 31 NNE 22 35 30.01 1016 10 16 0.00 0.00
3:52 pm 15:52 Partly Cloudy 73 22.8 44 6.7 35 35 N 22 35 29.98 1015 10 16 0.00 0.00
4:52 pm 16:52 Partly Cloudy 73 22.8 48 8.9 41 41 N 17 28 29.98 1015 10 16 0.00 0.00
5:52 pm 17:52 Mostly Cloudy 72 22.2 44 6.7 37 37 NE 22 35 30.00 1016 10 16 0.00 0.00
6:52 pm 18:52 Mostly Cloudy 68 20 41 5 37 37 NE 20 31 30.03 1017 10 16 0.00 0.00
7:52 pm 19:52 Mostly Cloudy 65 18.3 40 4.4 40 40 NNE 21 33 30.04 1017 10 16 0.00 0.00
8:52 pm 20:52 Mostly Cloudy 64 17.8 41 5 43 43 N 18 30 30.06 1018 10 16 0.00 0.00
9:52 pm 21:52 Cloudy 63 17.2 41 5 44 44 N 15 24 30.07 1018 10 16 0.00 0.00
10:52 pm 22:52 Cloudy 63 17.2 39 3.9 41 41 NNE 15 24 30.06 1018 10 16 0.00 0.00
11:52 pm 23:52 Mostly Cloudy 62 16.7 38 3.3 41 41 N 15 24 30.06 1018 10 16 0.00 0.00

Powered by AerisWeather